Tracking 31027 objects as of 19-Jul-2025
HD Live streaming from Space Station
objects crossing your sky now

SPIRIT

Track SPIRIT now!
10-day predictions
SPIRIT is classified as:


NORAD ID: 58468
Int'l Code: 2023-185G
Perigee: 449.4 km
Apogee: 458.9 km
Inclination: 97.4 °
Period: 93.5 minutes
Semi major axis: 6825 km
RCS: Unknown
Launch date: December 1, 2023
Source: Australia (AUS)
Launch site: AIR FORCE WESTERN TEST RANGE (AFWTR)

Uplink (MHz):
Downlink (MHz): 401.895
Beacon (MHz):
Mode: 9600bps FSK
Call sign:
Status: Active

Your satellite tracking list
No more satellites can be added for tracking (max 5)
FOX-1B (RADFXSAT AO-91)
FOX-1D (AO-92)
FOX-1A (AO-85)
FUNCUBE 1 (AO-73)
SPACE STATION
Track 5 satellite(s)




NASA's NSSDC Master Catalog

Two Line Element Set (TLE):
1 58468U 23185G   25199.87744567  .00019101  00000-0  48482-3 0  9995
2 58468  97.3741 270.2963 0006945 321.1734  38.9013 15.39686994 90753
Source of the keplerian elements: AFSPC